Location: Gunung Kajang
(2.4167°N, 113.7167°E)
Time: 16:50:19
(UTC+00:00)

Meteor 1-27 Rocket - Pass Details

Date: 29 May 2022
Orbit: 830 x 909 km, 81.3° (Epoch: 28 June)

Event Time Altitude Azimuth Distance (km) Brightness Sun altitude
Exits shadow 12:20:34 11° 195° (SSW) 2,426 6.0 -26.2°
Maximum altitude 12:25:59 63° 275° (W) 960 4.1 -27.4°
Drops below altitude 10° 12:31:39 10° 356° (N) 2,526 6.5 -28.7°
Sets 12:34:08 0° 359° (N) 3,474 7.2 -29.3°
